• In Deutschland
  • Länderverzeichnis
  • Für 7 Tage
  • Wassertemperatur
  • Satellitenkarten
  • Wetterkarte
  • Widgets
  • user-avatar
    Anmelden

    Stündliche Wetter La Rioja

    Heute, 22 Januar, Montag

    Zeit Temperatur Niederschläge Wind Luftdruck Luftfeuchtigkeit
    00:00 +28°C° 0,5 mm 2 m/S 711 mmHg 54%
    01:00 +28°C° 0,5 mm 2 m/S 711 mmHg 56%
    02:00 +27°C° 0,5 mm 1 m/S 711 mmHg 58%
    03:00 +27°C° 0,4 mm 1 m/S 711 mmHg 59%
    04:00 +26°C° 0,4 mm 1 m/S 711 mmHg 60%
    05:00 +26°C° 0,4 mm 1 m/S 710 mmHg 61%
    06:00 +27°C° 0,4 mm 1 m/S 711 mmHg 58%
    07:00 +27°C° 0,4 mm 1 m/S 711 mmHg 55%
    08:00 +28°C° 0,4 mm 1 m/S 711 mmHg 52%
    09:00 +30°C° 0,2 mm 1 m/S 711 mmHg 47%
    10:00 +31°C° 0,2 mm 1 m/S 710 mmHg 43%
    11:00 +34°C° 0,2 mm 2 m/S 710 mmHg 38%
    12:00 +35°C° 0,1 mm 2 m/S 709 mmHg 35%
    13:00 +36°C° 0,1 mm 2 m/S 709 mmHg 32%
    14:00 +37°C° 0,1 mm 3 m/S 708 mmHg 29%
    15:00 +37°C° 0,1 mm 3 m/S 708 mmHg 29%
    16:00 +38°C° 0,1 mm 4 m/S 707 mmHg 28%
    17:00 +38°C° 0,1 mm 4 m/S 707 mmHg 27%
    18:00 +37°C° 0,6 mm 4 m/S 707 mmHg 31%
    19:00 +35°C° 0,6 mm 3 m/S 707 mmHg 35%
    20:00 +34°C° 0,6 mm 3 m/S 708 mmHg 40%
    21:00 +33°C° 0,8 mm 3 m/S 708 mmHg 42%
    22:00 +31°C° 0,8 mm 2 m/S 709 mmHg 45%
    23:00 +30°C° 0,8 mm 2 m/S 709 mmHg 47%

    Morgen, 23 Januar, Dienstag

    Zeit Temperatur Niederschläge Wind Luftdruck Luftfeuchtigkeit
    00:00 +30°C° 0,1 mm 2 m/S 709 mmHg 49%
    01:00 +29°C° 0,1 mm 2 m/S 709 mmHg 50%
    02:00 +29°C° 0,1 mm 1 m/S 708 mmHg 52%
    03:00 +28°C° 0,1 mm 1 m/S 708 mmHg 52%
    04:00 +28°C° 0,1 mm 1 m/S 708 mmHg 52%
    05:00 +28°C° 0,1 mm 2 m/S 708 mmHg 52%
    06:00 +29°C° 0 mm 2 m/S 709 mmHg 49%
    07:00 +30°C° 0 mm 1 m/S 710 mmHg 45%
    08:00 +31°C° 0 mm 1 m/S 710 mmHg 41%
    09:00 +32°C° 0 mm 2 m/S 710 mmHg 38%
    10:00 +35°C° 0 mm 2 m/S 710 mmHg 35%
    11:00 +36°C° 0 mm 3 m/S 710 mmHg 31%
    12:00 +37°C° 0 mm 3 m/S 710 mmHg 30%
    13:00 +38°C° 0 mm 3 m/S 709 mmHg 28%
    14:00 +39°C° 0 mm 3 m/S 709 mmHg 26%
    15:00 +40°C° 0,1 mm 4 m/S 708 mmHg 26%
    16:00 +40°C° 0,1 mm 4 m/S 708 mmHg 26%
    17:00 +40°C° 0,1 mm 4 m/S 708 mmHg 25%
    18:00 +38°C° 0,8 mm 3 m/S 708 mmHg 31%
    19:00 +36°C° 0,8 mm 3 m/S 709 mmHg 36%
    20:00 +35°C° 0,8 mm 2 m/S 709 mmHg 41%
    21:00 +34°C° 1,2 mm 2 m/S 710 mmHg 44%
    22:00 +33°C° 1,2 mm 3 m/S 710 mmHg 46%
    23:00 +32°C° 1,2 mm 4 m/S 711 mmHg 49%

    übermorgen, 24 Januar, Mittwoch

    Zeit Temperatur Niederschläge Wind Luftdruck Luftfeuchtigkeit
    00:00 +30°C° 1 mm 3 m/S 711 mmHg 50%
    01:00 +30°C° 1 mm 3 m/S 711 mmHg 52%
    02:00 +29°C° 1 mm 3 m/S 711 mmHg 54%
    03:00 +28°C° 1,2 mm 2 m/S 712 mmHg 56%
    04:00 +28°C° 1,2 mm 2 m/S 712 mmHg 59%
    05:00 +27°C° 1,2 mm 2 m/S 712 mmHg 61%
    06:00 +28°C° 1 mm 2 m/S 713 mmHg 59%
    07:00 +28°C° 1 mm 2 m/S 713 mmHg 57%
    08:00 +29°C° 1 mm 2 m/S 714 mmHg 55%
    09:00 +30°C° 0,6 mm 2 m/S 714 mmHg 51%
    10:00 +31°C° 0,6 mm 2 m/S 715 mmHg 46%
    11:00 +32°C° 0,6 mm 2 m/S 715 mmHg 42%
    12:00 +34°C° 0,8 mm 3 m/S 715 mmHg 40%
    13:00 +35°C° 0,8 mm 3 m/S 714 mmHg 39%
    14:00 +35°C° 0,8 mm 4 m/S 714 mmHg 37%
    15:00 +35°C° 0,4 mm 4 m/S 714 mmHg 39%
    16:00 +34°C° 0,4 mm 4 m/S 713 mmHg 41%
    17:00 +34°C° 0,4 mm 4 m/S 713 mmHg 43%
    18:00 +33°C° 0,7 mm 4 m/S 714 mmHg 47%
    19:00 +32°C° 0,7 mm 4 m/S 714 mmHg 51%
    20:00 +30°C° 0,7 mm 3 m/S 715 mmHg 56%
    21:00 +29°C° 1,3 mm 3 m/S 715 mmHg 60%
    22:00 +28°C° 1,3 mm 2 m/S 715 mmHg 63%
    23:00 +27°C° 1,3 mm 2 m/S 715 mmHg 67%

    25 Januar, Donnerstag

    Zeit Temperatur Niederschläge Wind Luftdruck Luftfeuchtigkeit
    00:00 +27°C° 0,6 mm 2 m/S 715 mmHg 69%
    01:00 +26°C° 0,6 mm 2 m/S 714 mmHg 71%
    02:00 +26°C° 0,6 mm 2 m/S 714 mmHg 73%
    03:00 +25°C° 0 mm 1 m/S 714 mmHg 74%
    04:00 +25°C° 0 mm 1 m/S 714 mmHg 75%
    05:00 +25°C° 0 mm 1 m/S 714 mmHg 76%
    06:00 +26°C° 0 mm 1 m/S 714 mmHg 71%
    07:00 +26°C° 0 mm 2 m/S 714 mmHg 67%
    08:00 +27°C° 0 mm 2 m/S 714 mmHg 62%
    09:00 +28°C° 0 mm 2 m/S 714 mmHg 57%
    10:00 +30°C° 0 mm 3 m/S 714 mmHg 53%
    11:00 +32°C° 0 mm 4 m/S 713 mmHg 48%
    12:00 +33°C° 0 mm 4 m/S 713 mmHg 46%
    13:00 +34°C° 0 mm 4 m/S 712 mmHg 44%
    14:00 +35°C° 0 mm 5 m/S 711 mmHg 42%
    15:00 +35°C° 0 mm 5 m/S 710 mmHg 43%
    16:00 +35°C° 0 mm 6 m/S 710 mmHg 43%
    17:00 +35°C° 0 mm 6 m/S 709 mmHg 43%
    18:00 +33°C° 0 mm 6 m/S 710 mmHg 48%
    19:00 +32°C° 0 mm 5 m/S 710 mmHg 53%
    20:00 +30°C° 0 mm 5 m/S 710 mmHg 58%
    21:00 +30°C° 0 mm 4 m/S 711 mmHg 61%
    22:00 +29°C° 0 mm 4 m/S 711 mmHg 64%
    23:00 +28°C° 0 mm 3 m/S 712 mmHg 68%

    26 Januar, Freitag

    Zeit Temperatur Niederschläge Wind Luftdruck Luftfeuchtigkeit
    00:00 +28°C° 0 mm 2 m/S 711 mmHg 69%
    01:00 +27°C° 0 mm 2 m/S 711 mmHg 71%
    02:00 +27°C° 0 mm 1 m/S 710 mmHg 73%
    03:00 +27°C° 0 mm 1 m/S 710 mmHg 74%
    04:00 +26°C° 0 mm 1 m/S 710 mmHg 75%
    05:00 +26°C° 0 mm 1 m/S 710 mmHg 77%
    06:00 +27°C° 0 mm 1 m/S 710 mmHg 74%
    07:00 +27°C° 0 mm 2 m/S 710 mmHg 72%
    08:00 +28°C° 0 mm 2 m/S 711 mmHg 69%
    09:00 +29°C° 0 mm 2 m/S 711 mmHg 64%
    10:00 +30°C° 0 mm 2 m/S 711 mmHg 58%
    11:00 +32°C° 0 mm 2 m/S 710 mmHg 53%
    12:00 +34°C° 0,2 mm 3 m/S 710 mmHg 49%
    13:00 +35°C° 0,2 mm 3 m/S 709 mmHg 45%
    14:00 +36°C° 0,2 mm 3 m/S 708 mmHg 41%
    15:00 +36°C° 0,2 mm 4 m/S 708 mmHg 41%
    16:00 +37°C° 0,2 mm 4 m/S 708 mmHg 40%
    17:00 +37°C° 0,2 mm 4 m/S 707 mmHg 39%
    18:00 +36°C° 0,2 mm 4 m/S 708 mmHg 44%
    19:00 +34°C° 0,2 mm 4 m/S 708 mmHg 49%
    20:00 +33°C° 0,2 mm 4 m/S 709 mmHg 54%
    21:00 +32°C° 0,7 mm 4 m/S 709 mmHg 59%
    22:00 +31°C° 0,7 mm 3 m/S 710 mmHg 64%
    23:00 +30°C° 0,7 mm 2 m/S 711 mmHg 69%

    27 Januar, Samstag

    Zeit Temperatur Niederschläge Wind Luftdruck Luftfeuchtigkeit
    00:00 +29°C° 1 mm 2 m/S 710 mmHg 71%
    01:00 +29°C° 1 mm 2 m/S 710 mmHg 73%
    02:00 +28°C° 1 mm 1 m/S 710 mmHg 76%
    03:00 +28°C° 0,7 mm 1 m/S 710 mmHg 77%
    04:00 +27°C° 0,7 mm 1 m/S 710 mmHg 78%
    05:00 +27°C° 0,7 mm 1 m/S 710 mmHg 79%
    06:00 +28°C° 0,1 mm 1 m/S 710 mmHg 74%
    07:00 +28°C° 0,1 mm 1 m/S 711 mmHg 70%
    08:00 +29°C° 0,1 mm 1 m/S 711 mmHg 65%
    09:00 +30°C° 0,2 mm 1 m/S 711 mmHg 59%
    10:00 +32°C° 0,2 mm 2 m/S 711 mmHg 53%
    11:00 +34°C° 0,2 mm 2 m/S 710 mmHg 47%
    12:00 +35°C° 0,6 mm 3 m/S 710 mmHg 44%
    13:00 +36°C° 0,6 mm 3 m/S 709 mmHg 42%
    14:00 +37°C° 0,6 mm 4 m/S 709 mmHg 39%
    15:00 +37°C° 0,4 mm 4 m/S 708 mmHg 38%
    16:00 +37°C° 0,4 mm 4 m/S 708 mmHg 37%
    17:00 +37°C° 0,4 mm 4 m/S 708 mmHg 36%
    18:00 +36°C° 0,3 mm 4 m/S 709 mmHg 39%
    19:00 +35°C° 0,3 mm 3 m/S 709 mmHg 42%
    20:00 +34°C° 0,3 mm 3 m/S 710 mmHg 46%
    21:00 +33°C° 0,8 mm 3 m/S 710 mmHg 50%
    22:00 +31°C° 0,8 mm 2 m/S 711 mmHg 55%
    23:00 +30°C° 0,8 mm 2 m/S 711 mmHg 60%
    Mehr zeigen